星链-3313 (STARLINK-3313 )

导读 | 豆包AI

STARLINK-3313是美国SpaceX公司星链(Starlink)低轨卫星互联网星座中的一员,于2021年12月18日发射入轨。星链计划计划部署数万颗低轨卫星,旨在为全球提供高速卫星互联网服务,面向偏远地区基础联网以及商业化宽带接入。该卫星属于星链第一代组网卫星,采用猎鹰9号火箭发射,运行在近地轨道,通过星座组网实现全球覆盖,助力星链完成全球卫星互联网服务部署,目前该卫星随星链星座在轨提供服务。

Basic Information
目录编号:
50157
目录名称:
STARLINK-3313
国际标识:
2021-125B
轨道中心:
EARTH
卫星名称:
星链-3313
卫星全名:
星链-3313 (STARLINK-3313 )
卫星状态:
已陨落 最后检测时间 2025-11-07
发射日期:
2021-12-18 UTC
国别 :
美国 (US)
星等 :
--
Orbit Information
数据来源 国际轨道数据
星历时间: 2025-11-07T13:28:40+0800
轨道信息已过期174天
半长轴: 6525.796km
偏心率: 0.000457
轨道倾角: 53.183°
近地点辐角 290.021°
升交点赤经 40.907°
平近点角 70.035°
近地点: 144.678km
远地点: 150.644km
周期: 87.440分钟
每日圈数: 16.468445
Detailed Information
固有亮度:
5
最大亮度:
2.5
卫星平台:
Starlink v1.5
覆盖范围:
全球
运营商:
太空探索技术公司
运营商所在国:
美国
制造商(研发单位):
太空探索技术公司
制造商所在国:
美国
使用方式:
暂无
Satellite Introduction
星链(Starlink)计划是由太空探索技术公司(SpaceX)提出的一个巨型低轨卫星互联网星座项目,计划在2019年至2024年间在太空搭建由约1.2万颗卫星组成的“星链”网络,其中1584颗将部署在地球上空550千米处的近地轨道,并从2020年开始工作。该卫星仍在工作。